This is the latest recevied weather packets stored in our database for station/object KC7GVU. If no packets are shown the sender has not sent any weather packets the latest 10 day(s).
| Time | Temp. | Humidity | Pressure | Rain* | Wind** | Luminosity | Snow |
|---|---|---|---|---|---|---|---|
| 1777486707 | 15° C | 67% | 1025 hPa | 0 mm | - | - | - |
| 1777486406 | 15° C | 67% | 1025 hPa | 0 mm | - | - | - |
| 1777486108 | 15° C | 67% | 1025 hPa | 0 mm | - | - | - |
| 1777484307 | 14.44° C | 67% | 1025 hPa | 0 mm | - | - | - |
| 1777484007 | 14.44° C | 66% | 1025 hPa | 0 mm | - | - | - |
| 1777483707 | 13.89° C | 66% | 1025 hPa | 0 mm | - | - | - |
| 1777483107 | 13.33° C | 67% | 1025 hPa | 0 mm | - | - | - |
| 1777482507 | 13.33° C | 66% | 1025 hPa | 0 mm | - | - | - |
| 1777481909 | 13.33° C | 67% | 1025 hPa | 0 mm | - | - | - |
| 1777481307 | 12.78° C | 66% | 1025 hPa | 0 mm | - | - | - |
| 1777480706 | 12.78° C | 67% | 1025 hPa | 0 mm | - | - | - |
| 1777480406 | 12.78° C | 67% | 1025 hPa | 0 mm | - | - | - |
| 1777480106 | 12.78° C | 68% | 1025 hPa | 0 mm | - | - | - |
| 1777479806 | 12.22° C | 68% | 1025 hPa | 0 mm | - | - | - |
| 1777479508 | 12.22° C | 69% | 1025 hPa | 0 mm | - | - | - |
| 1777478907 | 12.78° C | 68% | 1025 hPa | 0 mm | - | - | - |
| 1777478606 | 12.78° C | 68% | 1025 hPa | 0 mm | - | - | - |
| 1777478306 | 12.78° C | 68% | 1025 hPa | 0 mm | - | - | - |
| 1777478006 | 12.78° C | 67% | 1025 hPa | 0 mm | - | - | - |
| 1777477707 | 13.33° C | 68% | 1025 hPa | 0 mm | - | - | - |
| 1777477107 | 13.33° C | 70% | 1025 hPa | 0 mm | - | - | - |
| 1777476811 | 13.33° C | 72% | 1025 hPa | 0 mm | - | - | - |
| 1777476508 | 12.78° C | 72% | 1025 hPa | 0 mm | - | - | - |
| 1777475307 | 11.67° C | 76% | 1025 hPa | 0 mm | - | - | - |
| 1777474707 | 10.56° C | 79% | 1026 hPa | 0 mm | - | - | - |
* Rain latest hour (hover to see other rain measurements)
** Current wind speed in m/s (hover to see current wind gust speed)